Regional Weather Roundup
Issued by NWS Newport/Morehead, NC

Current Version | Previous Version | Text Only | Print | Product List | Glossary On
Versions: 1 2 3 4 5 6 7 8 9 10 11 12 13 14 15 16 17 18 19 20 21 22 23 24 25 26 27 28 29 30 31 32 33 34 35 36 37 38 39 40 41 42 43 44 45 46 47 48 49 50
000
ASUS42 KMHX 242225
RWRMHX
WEATHER ROUNDUP FOR EASTERN NORTH CAROLINA
NATIONAL WEATHER SERVICE NEWPORT/MOREHEAD CITY NC
600 PM EDT TUE MAY 24 2016

NOTE: "FAIR" INDICATES FEW OR NO CLOUDS BELOW 12,000 FEET
WITH NO SIGNIFICANT WEATHER AND/OR OBSTRUCTIONS TO VISIBILITY

NCZ015>017-031-032-045>047-102-103-242300-
NORTH COAST

CITY           SKY/WX    TMP DP  RH WIND       PRES   REMARKS
EDENTON        SUNNY     82  57  42 W6        30.06S
ELIZABETH CITY MOSUNNY   81  54  39 SW13      30.03S
KITTY HAWK     PTCLDY    80  54  39 W3        30.04R
MANTEO         SUNNY     76  62  60 S7        30.05S

$$

NCZ045>047-081-094-103-104-242300-
CENTRAL COAST

CITY           SKY/WX    TMP DP  RH WIND       PRES   REMARKS
FRISCO         SUNNY     72  62  71 SW12      30.08S

$$

NCZ095-097-098-100-101-242300-
SOUTHERN COAST

CITY           SKY/WX    TMP DP  RH WIND       PRES   REMARKS
BEAUFORT       SUNNY     73  59  61 SW20      30.11R
CEDAR ISLAND   NOT AVBL
JACKSONVILLE   MOSUNNY   75  57  53 S8        30.09S
PINEY ISLAND   CLEAR    N/A N/A N/A SW20      30.09R
WILMINGTON     SUNNY     77  57  50 S13       30.10S


$$

NCZ011>013-027>030-043-044-078>080-089-090>093-098-242300-
COASTAL PLAIN

CITY           SKY/WX    TMP DP  RH WIND       PRES   REMARKS
AHOSKIE        MOSUNNY   79  54  42 CALM      30.05F
CLINTON        SUNNY     82  55  38 W5        30.09S
ELIZABETHTOWN  SUNNY     80  54  40 SW3       30.09F
GOLDSBORO      SUNNY     83  49  30 SW9       30.07R
GREENVILLE     SUNNY     81  54  39 W7        30.08S
HAVELOCK       SUNNY     75  58  55 SW17G24   30.10S
KENANSVILLE    SUNNY     82  47  30 CALM      30.09S
KINSTON        SUNNY     82  48  30 W6        30.08S
NEW BERN       MOSUNNY   81  53  37 SW5       30.08S
RICHLANDS      MOSUNNY   82  53  36 VRB7      30.09S
ROCKY MOUNT    SUNNY     82  52  35 SW6       30.07S
WASHINGTON     SUNNY     82  54  38 W7        30.06S
WHITEVILLE     SUNNY     81  53  37 SW5       30.10F

$$

AMZ130-135-150-152-154-156-158-170-250-252-270-ANZ085-086-088-633-658-670-242300-
MARINE OBSERVATIONS

STATION/POSITION TIME  TEMP    WIND        PRES    WAVE   SWELL
                       AIR SEA DIR/SP/G            HT/PER HT/PER
                 (UTC) (F)     (DEG/KT/KT) (MB)    (FT/S) (FT/S)
CHESAPEAKE LIGHT 2200   72     180/  6/  6 1017.5
64 E VA BEACH    2150   62 57  220/ 10/ 10 1017.1    3/ 9   3/ 9
DUCK             2200   76                   N/A
2 E DUCK         2211      64                N/A     2/ 9
OREGON INLET     2200   71                   N/A
13E OREGON INLT  2200      63                N/A     3/10   2/10
HATTERAS CG      2200   71                   N/A
DIAMOND BUOY     2150   73 79  230/ 16/ 17 1018.5    3/ 9   3/ 9
CAPE LOOKOUT     2200   72     220/ 12/ 17 1019.1
BEAUFORT LAB     2200   73                   N/A
30 SE NEW RVR IN 2155      73                N/A     3/ 4
27 SE WRIGHTSVLE 2208   73 73  220/ 16/ 19 1019.6
5 SE WRIGHTSVLE  2208   73 72  220/ 16/ 21 1020.1
225 S CAPE HAT   2150   73 78  330/  6/ 10 1020.6    5/ 9   5/ 9
41 SE CHARLESTON 2150   75 76  130/  8/ 10 1020.3    2/ 8   2/ 8

$$




USA.gov is the U.S. government's official web portal to all federal, state and local government web resources and services.